owner,sensor,date,latitude,longitude,vertical_datum,mass_concentration_of_oxygen_in_sea_water,qcFlag 
SCCF RECON,ioos:station:SCCF:16:1,2009-07-01T00:00:00Z,26.4345,-81.9647,2.584,6.18,1111122 
SCCF RECON,ioos:station:SCCF:16:1,2009-07-01T01:00:00Z,26.4345,-81.9647,2.613,6.16,1111122 
SCCF RECON,ioos:station:SCCF:16:1,2009-07-01T02:00:00Z,26.4345,-81.9647,2.569,6.09,1111122 
SCCF RECON,ioos:station:SCCF:16:1,2009-07-01T03:00:00Z,26.4345,-81.9647,2.559,5.74,1111122 
SCCF RECON,ioos:station:SCCF:16:1,2009-07-01T04:00:00Z,26.4345,-81.9647,2.608,5.76,1111122 
SCCF RECON,ioos:station:SCCF:16:1,2009-07-01T05:00:00Z,26.4345,-81.9647,2.568,5.7,1111122 
SCCF RECON,ioos:station:SCCF:16:1,2009-07-01T06:00:00Z,26.4345,-81.9647,2.459,5.65,1111122 
SCCF RECON,ioos:station:SCCF:16:1,2009-07-01T07:00:00Z,26.4345,-81.9647,2.524,5.61,1111122 
SCCF RECON,ioos:station:SCCF:16:1,2009-07-01T08:00:00Z,26.4345,-81.9647,2.622,5.55,1111122 
SCCF RECON,ioos:station:SCCF:16:1,2009-07-01T09:00:00Z,26.4345,-81.9647,2.664,5.51,1111122 
SCCF RECON,ioos:station:SCCF:16:1,2009-07-01T10:00:00Z,26.4345,-81.9647,2.716,5.56,1111122 
SCCF RECON,ioos:station:SCCF:16:1,2009-07-01T11:00:00Z,26.4345,-81.9647,2.787,5.58,1111122 
SCCF RECON,ioos:station:SCCF:16:1,2009-07-01T12:00:00Z,26.4345,-81.9647,2.867,5.67,1111122 
SCCF RECON,ioos:station:SCCF:16:1,2009-07-01T13:00:00Z,26.4345,-81.9647,2.909,5.67,1111122 
SCCF RECON,ioos:station:SCCF:16:1,2009-07-01T14:00:00Z,26.4345,-81.9647,2.885,5.67,1111122 
SCCF RECON,ioos:station:SCCF:16:1,2009-07-01T15:00:00Z,26.4345,-81.9647,2.732,5.69,1111122 
SCCF RECON,ioos:station:SCCF:16:1,2009-07-01T16:00:00Z,26.4345,-81.9647,2.614,5.78,1111122 
SCCF RECON,ioos:station:SCCF:16:1,2009-07-01T17:00:00Z,26.4345,-81.9647,2.443,5.74,1111122 
SCCF RECON,ioos:station:SCCF:16:1,2009-07-01T18:00:00Z,26.4345,-81.9647,2.251,5.8,1111122 
SCCF RECON,ioos:station:SCCF:16:1,2009-07-01T19:00:00Z,26.4345,-81.9647,2.167,6.02,1111122 
SCCF RECON,ioos:station:SCCF:16:1,2009-07-01T20:00:00Z,26.4345,-81.9647,2.181,5.84,1111122 
SCCF RECON,ioos:station:SCCF:16:1,2009-07-01T21:00:00Z,26.4345,-81.9647,2.319,5.86,1111122 
SCCF RECON,ioos:station:SCCF:16:1,2009-07-01T22:00:00Z,26.4345,-81.9647,2.399,5.76,1111122 
SCCF RECON,ioos:station:SCCF:16:1,2009-07-01T23:00:00Z,26.4345,-81.9647,2.481,5.87,1111122 
SCCF RECON,ioos:station:SCCF:16:1,2009-07-02T00:00:00Z,26.4345,-81.9647,2.6,5.98,1111122 
SCCF RECON,ioos:station:SCCF:16:1,2009-07-02T01:00:00Z,26.4345,-81.9647,2.552,6.01,1111122 
SCCF RECON,ioos:station:SCCF:16:1,2009-07-02T02:00:00Z,26.4345,-81.9647,2.56,5.96,1111122 
SCCF RECON,ioos:station:SCCF:16:1,2009-07-02T03:00:00Z,26.4345,-81.9647,2.569,6.06,1111122 
SCCF RECON,ioos:station:SCCF:16:1,2009-07-02T04:00:00Z,26.4345,-81.9647,2.563,6.11,1111122 
SCCF RECON,ioos:station:SCCF:16:1,2009-07-02T05:00:00Z,26.4345,-81.9647,2.641,6.17,1111122 
SCCF RECON,ioos:station:SCCF:16:1,2009-07-02T06:00:00Z,26.4345,-81.9647,2.723,6.09,1111122 
SCCF RECON,ioos:station:SCCF:16:1,2009-07-02T07:00:00Z,26.4345,-81.9647,2.609,6.02,1111122 
SCCF RECON,ioos:station:SCCF:16:1,2009-07-02T08:00:00Z,26.4345,-81.9647,2.612,6.01,1111122 
SCCF RECON,ioos:station:SCCF:16:1,2009-07-02T09:00:00Z,26.4345,-81.9647,2.668,5.85,1111122 
SCCF RECON,ioos:station:SCCF:16:1,2009-07-02T10:00:00Z,26.4345,-81.9647,2.691,5.86,1111122 
SCCF RECON,ioos:station:SCCF:16:1,2009-07-02T11:00:00Z,26.4345,-81.9647,2.793,5.95,1111122 
SCCF RECON,ioos:station:SCCF:16:1,2009-07-02T12:00:00Z,26.4345,-81.9647,2.848,5.83,1111122 
SCCF RECON,ioos:station:SCCF:16:1,2009-07-02T13:00:00Z,26.4345,-81.9647,2.897,6.11,1111122 
SCCF RECON,ioos:station:SCCF:16:1,2009-07-02T14:00:00Z,26.4345,-81.9647,2.879,6.09,1111122 
SCCF RECON,ioos:station:SCCF:16:1,2009-07-02T15:00:00Z,26.4345,-81.9647,2.802,5.98,1111122 
SCCF RECON,ioos:station:SCCF:16:1,2009-07-02T16:00:00Z,26.4345,-81.9647,2.702,5.94,1111122 
SCCF RECON,ioos:station:SCCF:16:1,2009-07-02T17:00:00Z,26.4345,-81.9647,2.534,5.67,1111122 
SCCF RECON,ioos:station:SCCF:16:1,2009-07-02T18:00:00Z,26.4345,-81.9647,2.319,5.97,1111122 
SCCF RECON,ioos:station:SCCF:16:1,2009-07-02T19:00:00Z,26.4345,-81.9647,2.202,6.43,1111122 
SCCF RECON,ioos:station:SCCF:16:1,2009-07-02T20:00:00Z,26.4345,-81.9647,2.058,6.07,1111122 
SCCF RECON,ioos:station:SCCF:16:1,2009-07-02T21:00:00Z,26.4345,-81.9647,2.067,6.26,1111122 
SCCF RECON,ioos:station:SCCF:16:1,2009-07-02T22:00:00Z,26.4345,-81.9647,2.209,6.33,1111122 
SCCF RECON,ioos:station:SCCF:16:1,2009-07-02T23:00:00Z,26.4345,-81.9647,2.306,6.36,1111122 
SCCF RECON,ioos:station:SCCF:16:1,2009-07-03T00:00:00Z,26.4345,-81.9647,2.415,6.07,1111122 
SCCF RECON,ioos:station:SCCF:16:1,2009-07-03T01:00:00Z,26.4345,-81.9647,2.416,6.26,1111122 
SCCF RECON,ioos:station:SCCF:16:1,2009-07-03T02:00:00Z,26.4345,-81.9647,2.467,6.55,1111122 
SCCF RECON,ioos:station:SCCF:16:1,2009-07-03T03:00:00Z,26.4345,-81.9647,2.553,6.37,1111122 
SCCF RECON,ioos:station:SCCF:16:1,2009-07-03T04:00:00Z,26.4345,-81.9647,2.655,6.28,1111122 
SCCF RECON,ioos:station:SCCF:16:1,2009-07-03T05:00:00Z,26.4345,-81.9647,2.623,6.27,1111122 
SCCF RECON,ioos:station:SCCF:16:1,2009-07-03T06:00:00Z,26.4345,-81.9647,2.584,6.19,1111122 
SCCF RECON,ioos:station:SCCF:16:1,2009-07-03T07:00:00Z,26.4345,-81.9647,2.603,6.23,1111122 
SCCF RECON,ioos:station:SCCF:16:1,2009-07-03T08:00:00Z,26.4345,-81.9647,2.505,5.74,1111122 
SCCF RECON,ioos:station:SCCF:16:1,2009-07-03T09:00:00Z,26.4345,-81.9647,2.503,5.98,1111122 
SCCF RECON,ioos:station:SCCF:16:1,2009-07-03T10:00:00Z,26.4345,-81.9647,2.688,5.9,1111122 
SCCF RECON,ioos:station:SCCF:16:1,2009-07-03T11:00:00Z,26.4345,-81.9647,2.78,6.06,1111122 
SCCF RECON,ioos:station:SCCF:16:1,2009-07-03T12:00:00Z,26.4345,-81.9647,2.794,5.81,1111122 
SCCF RECON,ioos:station:SCCF:16:1,2009-07-03T13:00:00Z,26.4345,-81.9647,2.817,6.19,1111122 
SCCF RECON,ioos:station:SCCF:16:1,2009-07-03T14:00:00Z,26.4345,-81.9647,2.836,6.28,1111122 
SCCF RECON,ioos:station:SCCF:16:1,2009-07-03T15:00:00Z,26.4345,-81.9647,2.819,6.26,1111122 
SCCF RECON,ioos:station:SCCF:16:1,2009-07-03T16:00:00Z,26.4345,-81.9647,2.718,6.27,1111122 
SCCF RECON,ioos:station:SCCF:16:1,2009-07-03T17:00:00Z,26.4345,-81.9647,2.585,6.47,1111122 
SCCF RECON,ioos:station:SCCF:16:1,2009-07-03T18:00:00Z,26.4345,-81.9647,2.444,6.14,1111122 
SCCF RECON,ioos:station:SCCF:16:1,2009-07-03T19:00:00Z,26.4345,-81.9647,2.28,6.47,1111122 
SCCF RECON,ioos:station:SCCF:16:1,2009-07-03T20:00:00Z,26.4345,-81.9647,2.119,6.1,1111122 
SCCF RECON,ioos:station:SCCF:16:1,2009-07-03T21:00:00Z,26.4345,-81.9647,1.993,6.02,1111122 
SCCF RECON,ioos:station:SCCF:16:1,2009-07-03T22:00:00Z,26.4345,-81.9647,1.998,6.26,1111122 
SCCF RECON,ioos:station:SCCF:16:1,2009-07-03T23:00:00Z,26.4345,-81.9647,2.099,6.29,1111122 
SCCF RECON,ioos:station:SCCF:16:1,2009-07-04T00:00:00Z,26.4345,-81.9647,2.294,6.39,1111122 
SCCF RECON,ioos:station:SCCF:16:1,2009-07-04T01:00:00Z,26.4345,-81.9647,2.407,6.18,1111122 
SCCF RECON,ioos:station:SCCF:16:1,2009-07-04T02:00:00Z,26.4345,-81.9647,2.459,6.59,1111122 
SCCF RECON,ioos:station:SCCF:16:1,2009-07-04T03:00:00Z,26.4345,-81.9647,2.558,6.62,1111122 
SCCF RECON,ioos:station:SCCF:16:1,2009-07-04T04:00:00Z,26.4345,-81.9647,2.674,6.54,1111122 
SCCF RECON,ioos:station:SCCF:16:1,2009-07-04T05:00:00Z,26.4345,-81.9647,2.635,6.53,1111122 
SCCF RECON,ioos:station:SCCF:16:1,2009-07-04T06:00:00Z,26.4345,-81.9647,2.593,6.5,1111122 
SCCF RECON,ioos:station:SCCF:16:1,2009-07-04T07:00:00Z,26.4345,-81.9647,2.609,6.39,1111122 
SCCF RECON,ioos:station:SCCF:16:1,2009-07-04T08:00:00Z,26.4345,-81.9647,2.562,6.29,1111122 
SCCF RECON,ioos:station:SCCF:16:1,2009-07-04T09:00:00Z,26.4345,-81.9647,2.556,6.01,1111122 
SCCF RECON,ioos:station:SCCF:16:1,2009-07-04T10:00:00Z,26.4345,-81.9647,2.57,6.18,1111122 
SCCF RECON,ioos:station:SCCF:16:1,2009-07-04T11:00:00Z,26.4345,-81.9647,2.683,6.25,1111122 
SCCF RECON,ioos:station:SCCF:16:1,2009-07-04T12:00:00Z,26.4345,-81.9647,2.718,6.08,1111122 
SCCF RECON,ioos:station:SCCF:16:1,2009-07-04T13:00:00Z,26.4345,-81.9647,2.782,6.06,1111122 
SCCF RECON,ioos:station:SCCF:16:1,2009-07-04T14:00:00Z,26.4345,-81.9647,2.84,6.05,1111122 
SCCF RECON,ioos:station:SCCF:16:1,2009-07-04T15:00:00Z,26.4345,-81.9647,2.854,6.1,1111122 
SCCF RECON,ioos:station:SCCF:16:1,2009-07-04T16:00:00Z,26.4345,-81.9647,2.808,6.16,1111122 
SCCF RECON,ioos:station:SCCF:16:1,2009-07-04T17:00:00Z,26.4345,-81.9647,2.713,6.21,1111122 
SCCF RECON,ioos:station:SCCF:16:1,2009-07-04T18:00:00Z,26.4345,-81.9647,2.586,6.29,1111122 
SCCF RECON,ioos:station:SCCF:16:1,2009-07-04T19:00:00Z,26.4345,-81.9647,2.393,6.23,1111122 
SCCF RECON,ioos:station:SCCF:16:1,2009-07-04T20:00:00Z,26.4345,-81.9647,2.174,6.36,1111122 
SCCF RECON,ioos:station:SCCF:16:1,2009-07-04T21:00:00Z,26.4345,-81.9647,1.975,6.12,1111122 
SCCF RECON,ioos:station:SCCF:16:1,2009-07-04T22:00:00Z,26.4345,-81.9647,1.906,6.06,1111122 
SCCF RECON,ioos:station:SCCF:16:1,2009-07-04T23:00:00Z,26.4345,-81.9647,1.955,6.18,1111122 
SCCF RECON,ioos:station:SCCF:16:1,2009-07-05T00:00:00Z,26.4345,-81.9647,2.132,6.13,1111122 
SCCF RECON,ioos:station:SCCF:16:1,2009-07-05T01:00:00Z,26.4345,-81.9647,2.278,6.2,1111122 
SCCF RECON,ioos:station:SCCF:16:1,2009-07-05T02:00:00Z,26.4345,-81.9647,2.432,6.31,1111122 
SCCF RECON,ioos:station:SCCF:16:1,2009-07-05T03:00:00Z,26.4345,-81.9647,2.52,6.89,1111122 
SCCF RECON,ioos:station:SCCF:16:1,2009-07-05T04:00:00Z,26.4345,-81.9647,2.636,6.64,1111122 
SCCF RECON,ioos:station:SCCF:16:1,2009-07-05T05:00:00Z,26.4345,-81.9647,2.681,6.4,1111122 
SCCF RECON,ioos:station:SCCF:16:1,2009-07-05T06:00:00Z,26.4345,-81.9647,2.647,6.2,1111122 
SCCF RECON,ioos:station:SCCF:16:1,2009-07-05T07:00:00Z,26.4345,-81.9647,2.622,6.09,1111122 
SCCF RECON,ioos:station:SCCF:16:1,2009-07-05T08:00:00Z,26.4345,-81.9647,2.62,6.04,1111122 
SCCF RECON,ioos:station:SCCF:16:1,2009-07-05T09:00:00Z,26.4345,-81.9647,2.598,6.02,1111122 
SCCF RECON,ioos:station:SCCF:16:1,2009-07-05T10:00:00Z,26.4345,-81.9647,2.558,5.91,1111122 
SCCF RECON,ioos:station:SCCF:16:1,2009-07-05T11:00:00Z,26.4345,-81.9647,2.595,5.51,1111122 
SCCF RECON,ioos:station:SCCF:16:1,2009-07-05T12:00:00Z,26.4345,-81.9647,2.689,5.94,1111122 
SCCF RECON,ioos:station:SCCF:16:1,2009-07-05T13:00:00Z,26.4345,-81.9647,2.854,5.91,1111122 
SCCF RECON,ioos:station:SCCF:16:1,2009-07-05T14:00:00Z,26.4345,-81.9647,2.958,5.84,1111122 
SCCF RECON,ioos:station:SCCF:16:1,2009-07-05T15:00:00Z,26.4345,-81.9647,2.955,5.96,1111122 
SCCF RECON,ioos:station:SCCF:16:1,2009-07-05T16:00:00Z,26.4345,-81.9647,2.951,6.1,1111122 
SCCF RECON,ioos:station:SCCF:16:1,2009-07-05T17:00:00Z,26.4345,-81.9647,2.82,5.95,1111122 
SCCF RECON,ioos:station:SCCF:16:1,2009-07-05T18:00:00Z,26.4345,-81.9647,2.677,6.12,1111122 
SCCF RECON,ioos:station:SCCF:16:1,2009-07-05T19:00:00Z,26.4345,-81.9647,2.511,6.11,1111122 
SCCF RECON,ioos:station:SCCF:16:1,2009-07-05T20:00:00Z,26.4345,-81.9647,2.344,6.11,1111122 
SCCF RECON,ioos:station:SCCF:16:1,2009-07-05T21:00:00Z,26.4345,-81.9647,2.198,6.6,1111122 
SCCF RECON,ioos:station:SCCF:16:1,2009-07-05T22:00:00Z,26.4345,-81.9647,2.025,6.35,1111122 
SCCF RECON,ioos:station:SCCF:16:1,2009-07-05T23:00:00Z,26.4345,-81.9647,1.958,6.49,1111122 
SCCF RECON,ioos:station:SCCF:16:1,2009-07-06T00:00:00Z,26.4345,-81.9647,2.064,6.48,1111122 
SCCF RECON,ioos:station:SCCF:16:1,2009-07-06T01:00:00Z,26.4345,-81.9647,2.26,6.34,1111122 
SCCF RECON,ioos:station:SCCF:16:1,2009-07-06T02:00:00Z,26.4345,-81.9647,2.439,6.36,1111122 
SCCF RECON,ioos:station:SCCF:16:1,2009-07-06T03:00:00Z,26.4345,-81.9647,2.534,6.68,1111122 
SCCF RECON,ioos:station:SCCF:16:1,2009-07-06T04:00:00Z,26.4345,-81.9647,2.631,6.72,1111122 
SCCF RECON,ioos:station:SCCF:16:1,2009-07-06T05:00:00Z,26.4345,-81.9647,2.71,6.8,1111122 
SCCF RECON,ioos:station:SCCF:16:1,2009-07-06T06:00:00Z,26.4345,-81.9647,2.749,6.8,1111122 
SCCF RECON,ioos:station:SCCF:16:1,2009-07-06T07:00:00Z,26.4345,-81.9647,2.687,6.71,1111122 
SCCF RECON,ioos:station:SCCF:16:1,2009-07-06T08:00:00Z,26.4345,-81.9647,2.65,6.59,1111122 
SCCF RECON,ioos:station:SCCF:16:1,2009-07-06T09:00:00Z,26.4345,-81.9647,2.666,6.43,1111122 
SCCF RECON,ioos:station:SCCF:16:1,2009-07-06T10:00:00Z,26.4345,-81.9647,2.637,6.22,1111122 
SCCF RECON,ioos:station:SCCF:16:1,2009-07-06T11:00:00Z,26.4345,-81.9647,2.599,6.18,1111122 
SCCF RECON,ioos:station:SCCF:16:1,2009-07-06T12:00:00Z,26.4345,-81.9647,2.66,6.3,1111122 
SCCF RECON,ioos:station:SCCF:16:1,2009-07-06T13:00:00Z,26.4345,-81.9647,2.768,6.37,1111122 
SCCF RECON,ioos:station:SCCF:16:1,2009-07-06T14:00:00Z,26.4345,-81.9647,2.902,6.5,1111122 
SCCF RECON,ioos:station:SCCF:16:1,2009-07-06T15:00:00Z,26.4345,-81.9647,2.978,6.54,1111122 
SCCF RECON,ioos:station:SCCF:16:1,2009-07-06T16:00:00Z,26.4345,-81.9647,3.014,6.54,1111122 
SCCF RECON,ioos:station:SCCF:16:1,2009-07-06T17:00:00Z,26.4345,-81.9647,2.922,6.43,1111122 
SCCF RECON,ioos:station:SCCF:16:1,2009-07-06T18:00:00Z,26.4345,-81.9647,2.804,6.44,1111122 
SCCF RECON,ioos:station:SCCF:16:1,2009-07-06T19:00:00Z,26.4345,-81.9647,2.659,6.6,1111122 
SCCF RECON,ioos:station:SCCF:16:1,2009-07-06T20:00:00Z,26.4345,-81.9647,2.498,6.63,1111122 
SCCF RECON,ioos:station:SCCF:16:1,2009-07-06T21:00:00Z,26.4345,-81.9647,2.305,6.72,1111122 
SCCF RECON,ioos:station:SCCF:16:1,2009-07-06T22:00:00Z,26.4345,-81.9647,2.13,6.79,1111122 
SCCF RECON,ioos:station:SCCF:16:1,2009-07-06T23:00:00Z,26.4345,-81.9647,1.977,6.55,1111122 
SCCF RECON,ioos:station:SCCF:16:1,2009-07-07T00:00:00Z,26.4345,-81.9647,1.977,6.64,1111122 
SCCF RECON,ioos:station:SCCF:16:1,2009-07-07T01:00:00Z,26.4345,-81.9647,2.087,6.54,1111122 
SCCF RECON,ioos:station:SCCF:16:1,2009-07-07T02:00:00Z,26.4345,-81.9647,2.299,6.35,1111122 
SCCF RECON,ioos:station:SCCF:16:1,2009-07-07T03:00:00Z,26.4345,-81.9647,2.46,6.45,1111122 
SCCF RECON,ioos:station:SCCF:16:1,2009-07-07T04:00:00Z,26.4345,-81.9647,2.581,6.34,1111122 
SCCF RECON,ioos:station:SCCF:16:1,2009-07-07T05:00:00Z,26.4345,-81.9647,2.668,6.34,1111122 
SCCF RECON,ioos:station:SCCF:16:1,2009-07-07T06:00:00Z,26.4345,-81.9647,2.704,6.45,1111122 
SCCF RECON,ioos:station:SCCF:16:1,2009-07-07T07:00:00Z,26.4345,-81.9647,2.661,6.56,1111122 
SCCF RECON,ioos:station:SCCF:16:1,2009-07-07T08:00:00Z,26.4345,-81.9647,2.623,6.57,1111122 
SCCF RECON,ioos:station:SCCF:16:1,2009-07-07T09:00:00Z,26.4345,-81.9647,2.658,6.51,1111122 
SCCF RECON,ioos:station:SCCF:16:1,2009-07-07T10:00:00Z,26.4345,-81.9647,2.649,6.41,1111122 
SCCF RECON,ioos:station:SCCF:16:1,2009-07-07T11:00:00Z,26.4345,-81.9647,2.627,6.27,1111122 
SCCF RECON,ioos:station:SCCF:16:1,2009-07-07T12:00:00Z,26.4345,-81.9647,2.631,6.18,1111122 
SCCF RECON,ioos:station:SCCF:16:1,2009-07-07T13:00:00Z,26.4345,-81.9647,2.712,6.13,1111122 
SCCF RECON,ioos:station:SCCF:16:1,2009-07-07T14:00:00Z,26.4345,-81.9647,2.825,6.25,1111122 
SCCF RECON,ioos:station:SCCF:16:1,2009-07-07T15:00:00Z,26.4345,-81.9647,2.949,6.46,1111122 
SCCF RECON,ioos:station:SCCF:16:1,2009-07-07T16:00:00Z,26.4345,-81.9647,3.032,6.53,1111122 
SCCF RECON,ioos:station:SCCF:16:1,2009-07-07T17:00:00Z,26.4345,-81.9647,2.99,6.62,1111122 
SCCF RECON,ioos:station:SCCF:16:1,2009-07-07T18:00:00Z,26.4345,-81.9647,2.909,6.52,1111122 
SCCF RECON,ioos:station:SCCF:16:1,2009-07-07T19:00:00Z,26.4345,-81.9647,2.788,6.63,1111122 
SCCF RECON,ioos:station:SCCF:16:1,2009-07-07T20:00:00Z,26.4345,-81.9647,2.612,6.63,1111122 
SCCF RECON,ioos:station:SCCF:16:1,2009-07-07T21:00:00Z,26.4345,-81.9647,2.377,6.6,1111122 
SCCF RECON,ioos:station:SCCF:16:1,2009-07-07T22:00:00Z,26.4345,-81.9647,2.169,6.72,1111122 
SCCF RECON,ioos:station:SCCF:16:1,2009-07-07T23:00:00Z,26.4345,-81.9647,2.004,6.46,1111122 
SCCF RECON,ioos:station:SCCF:16:1,2009-07-08T00:00:00Z,26.4345,-81.9647,1.985,6.64,1111122 
SCCF RECON,ioos:station:SCCF:16:1,2009-07-08T01:00:00Z,26.4345,-81.9647,2.083,6.41,1111122 
SCCF RECON,ioos:station:SCCF:16:1,2009-07-08T02:00:00Z,26.4345,-81.9647,2.199,6.08,1111122 
SCCF RECON,ioos:station:SCCF:16:1,2009-07-08T03:00:00Z,26.4345,-81.9647,2.304,6.11,1111122 
SCCF RECON,ioos:station:SCCF:16:1,2009-07-08T04:00:00Z,26.4345,-81.9647,2.46,6.15,1111122 
SCCF RECON,ioos:station:SCCF:16:1,2009-07-08T05:00:00Z,26.4345,-81.9647,2.631,6.15,1111122 
SCCF RECON,ioos:station:SCCF:16:1,2009-07-08T06:00:00Z,26.4345,-81.9647,2.689,6.16,1111122 
SCCF RECON,ioos:station:SCCF:16:1,2009-07-08T07:00:00Z,26.4345,-81.9647,2.715,6.23,1111122 
SCCF RECON,ioos:station:SCCF:16:1,2009-07-08T08:00:00Z,26.4345,-81.9647,2.675,6.26,1111122 
SCCF RECON,ioos:station:SCCF:16:1,2009-07-08T09:00:00Z,26.4345,-81.9647,2.602,6.06,1111122 
SCCF RECON,ioos:station:SCCF:16:1,2009-07-08T10:00:00Z,26.4345,-81.9647,2.588,5.96,1111122 
SCCF RECON,ioos:station:SCCF:16:1,2009-07-08T11:00:00Z,26.4345,-81.9647,2.553,5.9,1111122 
SCCF RECON,ioos:station:SCCF:16:1,2009-07-08T12:00:00Z,26.4345,-81.9647,2.562,5.95,1111122 
SCCF RECON,ioos:station:SCCF:16:1,2009-07-08T13:00:00Z,26.4345,-81.9647,2.624,6.05,1111122 
SCCF RECON,ioos:station:SCCF:16:1,2009-07-08T14:00:00Z,26.4345,-81.9647,2.744,6.29,1111122 
SCCF RECON,ioos:station:SCCF:16:1,2009-07-08T15:00:00Z,26.4345,-81.9647,2.835,6.3,1111122 
SCCF RECON,ioos:station:SCCF:16:1,2009-07-08T16:00:00Z,26.4345,-81.9647,2.947,6.43,1111122 
SCCF RECON,ioos:station:SCCF:16:1,2009-07-08T17:00:00Z,26.4345,-81.9647,3.033,6.54,1111122 
SCCF RECON,ioos:station:SCCF:16:1,2009-07-08T18:00:00Z,26.4345,-81.9647,2.983,6.54,1111122 
SCCF RECON,ioos:station:SCCF:16:1,2009-07-08T19:00:00Z,26.4345,-81.9647,2.851,6.33,1111122 
SCCF RECON,ioos:station:SCCF:16:1,2009-07-08T20:00:00Z,26.4345,-81.9647,2.696,6.52,1111122 
SCCF RECON,ioos:station:SCCF:16:1,2009-07-08T21:00:00Z,26.4345,-81.9647,2.55,6.59,1111122 
SCCF RECON,ioos:station:SCCF:16:1,2009-07-08T22:00:00Z,26.4345,-81.9647,2.36,6.52,1111122 
SCCF RECON,ioos:station:SCCF:16:1,2009-07-08T23:00:00Z,26.4345,-81.9647,2.144,6.68,1111122 
SCCF RECON,ioos:station:SCCF:16:1,2009-07-09T00:00:00Z,26.4345,-81.9647,2.037,6.27,1111122 
SCCF RECON,ioos:station:SCCF:16:1,2009-07-09T01:00:00Z,26.4345,-81.9647,2.011,6.3,1111122 
SCCF RECON,ioos:station:SCCF:16:1,2009-07-09T02:00:00Z,26.4345,-81.9647,2.093,6.19,1111122 
SCCF RECON,ioos:station:SCCF:16:1,2009-07-09T03:00:00Z,26.4345,-81.9647,2.272,6.01,1111122 
SCCF RECON,ioos:station:SCCF:16:1,2009-07-09T04:00:00Z,26.4345,-81.9647,2.453,5.99,1111122 
SCCF RECON,ioos:station:SCCF:16:1,2009-07-09T05:00:00Z,26.4345,-81.9647,2.626,6.05,1111122 
SCCF RECON,ioos:station:SCCF:16:1,2009-07-09T06:00:00Z,26.4345,-81.9647,2.694,6.09,1111122 
SCCF RECON,ioos:station:SCCF:16:1,2009-07-09T07:00:00Z,26.4345,-81.9647,2.661,6.11,1111122 
SCCF RECON,ioos:station:SCCF:16:1,2009-07-09T08:00:00Z,26.4345,-81.9647,2.645,6.16,1111122 
SCCF RECON,ioos:station:SCCF:16:1,2009-07-09T09:00:00Z,26.4345,-81.9647,2.565,5.98,1111122 
SCCF RECON,ioos:station:SCCF:16:1,2009-07-09T10:00:00Z,26.4345,-81.9647,2.558,5.89,1111122 
SCCF RECON,ioos:station:SCCF:16:1,2009-07-09T11:00:00Z,26.4345,-81.9647,2.551,5.71,1111122 
SCCF RECON,ioos:station:SCCF:16:1,2009-07-09T12:00:00Z,26.4345,-81.9647,2.515,5.52,1111122 
SCCF RECON,ioos:station:SCCF:16:1,2009-07-09T13:00:00Z,26.4345,-81.9647,2.539,5.62,1111122 
SCCF RECON,ioos:station:SCCF:16:1,2009-07-09T14:00:00Z,26.4345,-81.9647,2.639,5.96,1111122 
SCCF RECON,ioos:station:SCCF:16:1,2009-07-09T15:00:00Z,26.4345,-81.9647,2.784,6.32,1111122 
SCCF RECON,ioos:station:SCCF:16:1,2009-07-09T16:00:00Z,26.4345,-81.9647,2.885,6.33,1111122 
SCCF RECON,ioos:station:SCCF:16:1,2009-07-09T17:00:00Z,26.4345,-81.9647,2.911,6.41,1111122 
SCCF RECON,ioos:station:SCCF:16:1,2009-07-09T18:00:00Z,26.4345,-81.9647,2.919,6.38,1111122 
SCCF RECON,ioos:station:SCCF:16:1,2009-07-09T19:00:00Z,26.4345,-81.9647,2.897,6.42,1111122 
SCCF RECON,ioos:station:SCCF:16:1,2009-07-09T20:00:00Z,26.4345,-81.9647,2.819,6.4,1111122 
SCCF RECON,ioos:station:SCCF:16:1,2009-07-09T21:00:00Z,26.4345,-81.9647,2.652,6.3,1111122 
SCCF RECON,ioos:station:SCCF:16:1,2009-07-09T22:00:00Z,26.4345,-81.9647,2.44,6.31,1111122 
SCCF RECON,ioos:station:SCCF:16:1,2009-07-09T23:00:00Z,26.4345,-81.9647,2.273,6.37,1111122 
SCCF RECON,ioos:station:SCCF:16:1,2009-07-10T00:00:00Z,26.4345,-81.9647,2.083,6.58,1111122 
SCCF RECON,ioos:station:SCCF:16:1,2009-07-10T01:00:00Z,26.4345,-81.9647,1.944,5.97,1111122 
SCCF RECON,ioos:station:SCCF:16:1,2009-07-10T02:00:00Z,26.4345,-81.9647,2.016,6.15,1111122 
SCCF RECON,ioos:station:SCCF:16:1,2009-07-10T03:00:00Z,26.4345,-81.9647,2.236,5.78,1111122 
SCCF RECON,ioos:station:SCCF:16:1,2009-07-10T04:00:00Z,26.4345,-81.9647,2.418,5.9,1111122 
SCCF RECON,ioos:station:SCCF:16:1,2009-07-10T05:00:00Z,26.4345,-81.9647,2.575,5.92,1111122 
SCCF RECON,ioos:station:SCCF:16:1,2009-07-10T06:00:00Z,26.4345,-81.9647,2.645,5.98,1111122 
SCCF RECON,ioos:station:SCCF:16:1,2009-07-10T07:00:00Z,26.4345,-81.9647,2.682,6.31,1111122 
SCCF RECON,ioos:station:SCCF:16:1,2009-07-10T08:00:00Z,26.4345,-81.9647,2.703,6.07,1111122 
SCCF RECON,ioos:station:SCCF:16:1,2009-07-10T09:00:00Z,26.4345,-81.9647,2.659,6.07,1111122 
SCCF RECON,ioos:station:SCCF:16:1,2009-07-10T10:00:00Z,26.4345,-81.9647,2.572,5.94,1111122 
SCCF RECON,ioos:station:SCCF:16:1,2009-07-10T11:00:00Z,26.4345,-81.9647,2.428,5.73,1111122 
SCCF RECON,ioos:station:SCCF:16:1,2009-07-10T12:00:00Z,26.4345,-81.9647,2.484,5.8,1111122 
SCCF RECON,ioos:station:SCCF:16:1,2009-07-10T13:00:00Z,26.4345,-81.9647,2.496,5.65,1111122 
SCCF RECON,ioos:station:SCCF:16:1,2009-07-10T14:00:00Z,26.4345,-81.9647,2.527,5.79,1111122 
SCCF RECON,ioos:station:SCCF:16:1,2009-07-10T15:00:00Z,26.4345,-81.9647,2.643,6.0,1111122 
SCCF RECON,ioos:station:SCCF:16:1,2009-07-10T16:00:00Z,26.4345,-81.9647,2.771,6.25,1111122 
SCCF RECON,ioos:station:SCCF:16:1,2009-07-10T17:00:00Z,26.4345,-81.9647,2.843,6.31,1111122 
SCCF RECON,ioos:station:SCCF:16:1,2009-07-10T18:00:00Z,26.4345,-81.9647,2.902,6.36,1111122 
SCCF RECON,ioos:station:SCCF:16:1,2009-07-10T19:00:00Z,26.4345,-81.9647,2.877,6.42,1111122 
SCCF RECON,ioos:station:SCCF:16:1,2009-07-10T20:00:00Z,26.4345,-81.9647,2.817,6.5,1111122 
SCCF RECON,ioos:station:SCCF:16:1,2009-07-10T21:00:00Z,26.4345,-81.9647,2.719,6.24,1111122 
SCCF RECON,ioos:station:SCCF:16:1,2009-07-10T22:00:00Z,26.4345,-81.9647,2.57,6.47,1111122 
SCCF RECON,ioos:station:SCCF:16:1,2009-07-10T23:00:00Z,26.4345,-81.9647,2.45,6.31,1111122 
SCCF RECON,ioos:station:SCCF:16:1,2009-07-11T00:00:00Z,26.4345,-81.9647,2.276,6.53,1111122 
SCCF RECON,ioos:station:SCCF:16:1,2009-07-11T01:00:00Z,26.4345,-81.9647,2.127,6.32,1111122 
SCCF RECON,ioos:station:SCCF:16:1,2009-07-11T02:00:00Z,26.4345,-81.9647,2.075,6.09,1111122 
SCCF RECON,ioos:station:SCCF:16:1,2009-07-11T03:00:00Z,26.4345,-81.9647,2.184,6.01,1111122 
SCCF RECON,ioos:station:SCCF:16:1,2009-07-11T04:00:00Z,26.4345,-81.9647,2.37,5.97,1111122 
SCCF RECON,ioos:station:SCCF:16:1,2009-07-11T05:00:00Z,26.4345,-81.9647,2.51,6.02,1111122 
SCCF RECON,ioos:station:SCCF:16:1,2009-07-11T06:00:00Z,26.4345,-81.9647,2.619,5.99,1111122 
SCCF RECON,ioos:station:SCCF:16:1,2009-07-11T07:00:00Z,26.4345,-81.9647,2.705,6.08,1111122 
SCCF RECON,ioos:station:SCCF:16:1,2009-07-11T08:00:00Z,26.4345,-81.9647,2.735,6.07,1111122 
SCCF RECON,ioos:station:SCCF:16:1,2009-07-11T09:00:00Z,26.4345,-81.9647,2.716,5.97,1111122 
SCCF RECON,ioos:station:SCCF:16:1,2009-07-11T10:00:00Z,26.4345,-81.9647,2.657,5.9,1111122 
SCCF RECON,ioos:station:SCCF:16:1,2009-07-11T11:00:00Z,26.4345,-81.9647,2.588,5.73,1111122 
SCCF RECON,ioos:station:SCCF:16:1,2009-07-11T12:00:00Z,26.4345,-81.9647,2.402,5.75,1111122 
SCCF RECON,ioos:station:SCCF:16:1,2009-07-11T13:00:00Z,26.4345,-81.9647,2.403,5.55,1111122 
SCCF RECON,ioos:station:SCCF:16:1,2009-07-11T14:00:00Z,26.4345,-81.9647,2.47,5.66,1111122 
SCCF RECON,ioos:station:SCCF:16:1,2009-07-11T15:00:00Z,26.4345,-81.9647,2.57,5.74,1111122 
SCCF RECON,ioos:station:SCCF:16:1,2009-07-11T16:00:00Z,26.4345,-81.9647,2.758,6.0,1111122 
SCCF RECON,ioos:station:SCCF:16:1,2009-07-11T17:00:00Z,26.4345,-81.9647,2.777,6.2,1111122 
SCCF RECON,ioos:station:SCCF:16:1,2009-07-11T18:00:00Z,26.4345,-81.9647,2.828,6.41,1111122 
SCCF RECON,ioos:station:SCCF:16:1,2009-07-11T19:00:00Z,26.4345,-81.9647,2.894,6.57,1111122 